Tampa, FL

9:30 PM EDT on April 26, 2018 (GMT -0400)
Tampa International

Weather History for KTPA - November, 2011

Change the Weather History Date:

Thursday, November 24, 2011

  Actual Average Record
Temperature  
Mean Temperature 68 °F 67 °F  
Max Temperature 78 °F 76 °F 88 °F (1958)
Min Temperature 58 °F 59 °F 31 °F (1970)
Degree Days  
Heating Degree Days 0 2  
Month to date heating degree days 9 28  
Since 1 July heating degree days 10 32  
Cooling Degree Days 3 4  
Month to date cooling degree days 158 141  
Year to date cooling degree days 3848 3507  
Growing Degree Days 17 (Base 50)    
Moisture  
Dew Point 55 °F    
Average Humidity 68    
Maximum Humidity 93    
Minimum Humidity 43    
Precipitation  
Precipitation 0.00 in 0.05 in 3.11 in (1953)
Month to date precipitation 0.80 1.19  
Year to date precipitation 52.59 43.47  
Sea Level Pressure  
Sea Level Pressure 30.18 in    
Wind  
Wind Speed 8 mph (NE)    
Max Wind Speed 16 mph    
Max Gust Speed 22 mph    
Visibility 10 miles    
Events      
T = Trace of Precipitation, MM = Missing Value Source: NWS Daily Summary

Daily Weather History Graph

Daily Weather History Graph

Search for Another Location

Airport or City:

Astronomy

Nov. 24, 2011 Rise Set
Actual Time 6:58 AM EST 5:34 PM EST
Civil Twilight 6:33 AM EST 5:59 PM EST
Nautical Twilight 6:04 AM EST 6:28 PM EST
Astronomical Twilight 5:36 AM EST 6:56 PM EST
Moon 6:13 AM EST (11/24) 5:07 PM EST (11/24)
Length of Visible Light 11h 26m
Length of Day
10h 36m
Waning Crescent, 0% of the Moon is Illuminated
Nov 24
Waning Crescent
Nov 25
New
Dec 2
First Quarter
Dec 10
Full
Dec 17
Last Quarter

Hourly Weather History & Observations

Time (EST) Temp. Dew Point Humidity Pressure Visibility Wind Dir Wind Speed Gust Speed Precip Events Conditions
12:53 AM 66.9 °F 64.0 °F 90% 30.09 in 10.0 mi NNW 4.6 mph - N/A   Scattered Clouds
1:53 AM 64.9 °F 61.0 °F 87% 30.10 in 10.0 mi North 8.1 mph - N/A   Partly Cloudy
2:53 AM 64.0 °F 55.9 °F 75% 30.10 in 10.0 mi NNE 9.2 mph - N/A   Partly Cloudy
3:53 AM 63.0 °F 54.0 °F 72% 30.11 in 10.0 mi NNE 8.1 mph - N/A   Partly Cloudy
4:53 AM 61.0 °F 54.0 °F 78% 30.12 in 10.0 mi NE 5.8 mph - N/A   Clear
5:53 AM 59.0 °F 53.6 °F 82% 30.14 in 10.0 mi NE 6.9 mph - N/A   Clear
6:53 AM 57.9 °F 52.0 °F 81% 30.16 in 10.0 mi NE 6.9 mph - N/A   Partly Cloudy
7:53 AM 59.0 °F 52.0 °F 78% 30.18 in 10.0 mi NNE 8.1 mph - N/A   Clear
8:53 AM 63.0 °F 53.1 °F 70% 30.19 in 10.0 mi NE 6.9 mph - N/A   Clear
9:53 AM 66.9 °F 54.0 °F 63% 30.21 in 10.0 mi NE 9.2 mph - N/A   Clear
10:53 AM 70.0 °F 55.0 °F 59% 30.20 in 10.0 mi ENE 6.9 mph 16.1 mph N/A   Clear
11:53 AM 73.0 °F 57.0 °F 57% 30.19 in 10.0 mi ENE 8.1 mph - N/A   Partly Cloudy
12:53 PM 75.0 °F 55.9 °F 51% 30.16 in 10.0 mi NE 8.1 mph 17.3 mph N/A   Partly Cloudy
1:53 PM 75.2 °F 55.4 °F 50% 30.15 in 10.0 mi ENE 6.9 mph 16.1 mph N/A   Scattered Clouds
2:53 PM 75.9 °F 55.0 °F 48% 30.14 in 10.0 mi NE 9.2 mph 17.3 mph N/A   Scattered Clouds
3:53 PM 77.0 °F 54.0 °F 45% 30.15 in 10.0 mi ENE 10.4 mph 16.1 mph N/A   Scattered Clouds
4:53 PM 75.0 °F 54.0 °F 48% 30.17 in 10.0 mi NE 8.1 mph 17.3 mph N/A   Partly Cloudy
5:53 PM 73.0 °F 53.1 °F 49% 30.19 in 10.0 mi NE 13.8 mph 19.6 mph N/A   Partly Cloudy
6:53 PM 70.0 °F 53.1 °F 55% 30.21 in 10.0 mi NE 9.2 mph 20.7 mph N/A   Clear
7:53 PM 68.0 °F 53.1 °F 59% 30.23 in 10.0 mi NE 10.4 mph 17.3 mph N/A   Clear
8:53 PM 66.9 °F 52.0 °F 59% 30.25 in 10.0 mi NE 6.9 mph - N/A   Clear
9:53 PM 66.0 °F 52.0 °F 60% 30.27 in 10.0 mi NE 4.6 mph - N/A   Partly Cloudy
10:53 PM 63.0 °F 53.1 °F 70% 30.27 in 10.0 mi NNE 8.1 mph - N/A   Partly Cloudy
11:53 PM 62.1 °F 54.0 °F 75% 30.25 in 10.0 mi NNE 6.9 mph - N/A   Partly Cloudy